Lapse_Rate
5.9 5.9 6.0 5.9 5.9 5.8 5.8 5.7 5.6 5.7 5.6 5.6 5.5 5.4 5.8 5.9 6.0 6.3 6.4 6.6 6.6 6.7 6.8 6.5 6.1 5.9 5.9 6.1 5.7 5.5 5.6 5.6 5.7 5.9 5.5 5.7 5.9 6.1 6.3 6.6 6.1 6.5 6.6 6.5 6.6
5.8 5.9 6.0 6.0 6.0 6.0 5.9 5.8 5.7 5.6 5.6 5.5 5.5 5.5 5.6 5.8 6.1 6.2 6.2 6.6 6.7 6.6 6.6 7.1 6.1 6.1 6.2 6.0 5.9 5.9 6.1 6.8 5.9 5.8 5.6 5.9 5.7 6.0 6.0 6.8 6.6 6.8 6.7 6.6 6.6
5.9 5.8 5.8 5.9 5.9 6.0 6.0 5.9 5.9 5.8 5.6 5.5 5.5 5.6 5.6 5.7 6.1 6.0 6.2 6.4 6.8 6.6 6.4 6.7 6.7 6.5 6.4 6.5 6.6 6.2 6.1 6.4 6.2 5.7 5.8 5.7 5.5 6.2 5.5 6.6 6.5 7.0 7.1 6.8 6.6
5.8 5.8 5.8 5.8 5.8 5.9 5.9 6.0 6.0 5.9 5.8 5.7 5.6 5.6 5.6 5.7 5.8 5.9 6.1 6.4 6.8 6.9 6.4 6.6 6.9 7.0 6.6 6.8 6.6 6.5 6.3 6.3 6.4 6.1 6.1 5.7 5.7 5.8 5.5 6.0 5.7 6.4 6.8 6.9 6.8
5.8 5.8 5.8 5.8 5.9 5.9 5.9 5.9 6.0 6.0 6.0 5.9 5.8 5.8 5.7 5.6 6.0 5.9 6.1 6.3 6.6 7.1 6.9 6.9 7.0 6.9 7.2 6.9 6.7 6.4 6.4 6.6 6.4 5.9 6.0 5.6 5.5 5.8 5.8 5.6 5.5 5.9 6.6 6.8 6.7
5.9 5.9 5.9 5.9 5.9 5.9 5.9 5.9 5.9 5.9 6.0 6.0 6.1 6.0 5.9 5.9 5.8 5.7 6.0 6.3 6.5 6.9 7.2 7.2 7.3 7.1 7.1 6.9 7.2 6.9 6.4 6.6 6.4 6.6 6.2 6.0 6.3 6.2 5.2 5.5 5.1 5.4 6.1 6.5 6.6
5.9 5.9 5.9 6.0 6.0 5.9 6.0 6.0 5.9 5.8 6.0 6.0 6.1 6.2 6.2 6.7 6.0 5.5 5.9 6.2 6.6 6.9 7.5 7.3 7.4 6.9 7.0 6.8 7.0 6.6 6.5 6.5 6.2 6.2 6.2 6.0 6.2 6.0 5.5 5.4 5.0 5.1 5.4 6.1 6.4
5.9 5.9 5.8 5.9 6.0 6.0 5.9 6.0 5.9 5.8 5.9 6.0 6.1 6.2 6.6 6.4 6.3 6.0 6.1 6.4 6.8 7.0 7.6 7.5 6.9 7.4 7.2 6.4 6.8 7.2 6.4 6.5 6.6 6.6 6.5 6.1 6.2 6.0 5.9 5.6 5.7 5.3 5.0 5.7 6.3
6.0 5.9 5.9 5.9 5.9 5.8 6.0 6.0 6.0 5.9 5.9 5.8 6.0 6.2 6.5 6.6 6.6 6.2 6.3 6.6 6.7 6.9 7.5 7.5 7.2 7.2 7.3 7.3 7.2 7.5 7.4 6.9 7.0 7.1 6.8 6.1 6.3 5.9 5.6 5.6 5.8 5.8 5.0 5.2 5.9
5.9 5.9 5.9 6.0 6.0 5.7 5.9 5.9 5.9 5.7 5.8 5.7 6.0 6.0 6.2 6.3 6.7 6.2 6.2 6.4 6.5 6.7 7.1 7.2 7.3 7.2 7.5 8.0 7.9 7.5 7.2 7.0 7.5 7.6 6.9 6.2 5.9 5.8 5.5 5.4 5.5 5.9 5.3 5.2 5.6
6.1 6.0 5.9 5.8 5.8 5.7 5.8 5.8 5.7 5.7 5.8 6.0 6.0 6.3 6.3 6.3 6.6 6.5 6.4 6.5 6.1 6.2 6.5 6.9 6.9 7.0 7.6 7.7 8.1 7.8 7.6 7.7 7.5 7.2 7.2 6.8 6.0 5.9 5.7 5.5 5.6 6.2 5.9 5.4 5.4
6.0 5.9 5.7 5.6 5.7 5.5 5.4 5.5 5.6 5.7 6.4 6.1 6.2 6.6 6.1 6.1 6.3 6.3 6.3 6.1 6.2 5.9 6.4 6.5 6.3 7.0 7.7 7.7 8.0 7.7 7.7 7.7 7.5 7.3 7.3 6.6 6.7 6.0 5.8 6.1 6.2 6.2 6.0 5.9 5.4
6.1 6.1 5.9 5.5 5.5 5.2 5.3 5.2 5.0 5.2 5.4 6.8 6.5 6.7 6.6 5.8 6.2 6.4 6.2 5.9 6.3 6.3 6.2 6.3 6.5 7.0 7.7 7.6 7.9 7.8 7.9 7.7 7.4 7.5 7.8 7.7 7.1 6.4 7.5 6.8 6.3 6.3 6.2 6.0 5.7
6.6 6.7 6.9 6.4 6.1 5.9 5.6 5.3 5.1 5.2 5.5 6.5 6.7 6.9 6.8 6.3 6.2 6.4 6.3 6.0 6.1 6.4 6.4 6.2 6.8 6.7 7.5 7.6 7.9 7.8 8.2 7.7 7.5 7.7 7.3 7.8 7.6 7.5 7.2 7.7 7.2 6.6 6.6 5.8 5.6
7.1 7.2 7.2 7.2 7.0 6.8 6.5 6.1 5.8 5.7 5.1 6.8 6.9 6.8 7.0 6.6 6.3 6.5 6.7 6.4 6.1 6.4 6.4 6.0 6.5 6.4 6.9 7.3 7.8 8.4 8.0 7.9 7.5 7.9 7.8 7.6 7.4 8.0 7.4 7.5 7.4 7.0 6.8 6.4 6.3
7.5 7.6 7.5 7.6 7.5 7.4 7.1 7.0 6.9 6.5 6.2 7.1 6.4 6.2 6.4 6.8 6.4 7.0 6.6 6.4 6.3 6.4 6.4 6.3 6.6 6.7 6.7 7.2 7.6 8.1 7.8 7.9 7.6 7.3 6.6 8.0 7.6 7.9 8.1 8.6 8.2 7.7 7.4 7.1 6.4
7.6 8.0 7.7 7.6 7.6 7.5 7.4 7.3 7.2 7.1 7.7 7.2 7.2 7.1 6.5 6.6 6.6 7.1 6.8 6.5 6.3 6.2 6.0 6.1 6.4 6.6 6.7 7.0 7.5 7.8 7.9 7.9 6.9 6.4 6.1 7.8 7.4 7.6 8.6 8.4 8.7 8.4 7.9 7.7 6.9
7.6 7.9 7.7 7.6 7.5 7.5 7.5 7.4 7.4 7.6 7.6 7.5 7.4 7.2 7.4 6.9 7.0 7.0 6.9 6.5 6.4 6.3 6.3 6.2 6.2 6.3 6.6 6.8 7.3 7.8 7.9 7.9 6.9 6.0 7.1 7.7 6.9 7.9 8.7 8.7 8.7 8.6 8.4 7.9 7.6
7.4 7.5 7.2 7.4 7.7 7.6 7.6 7.5 7.9 7.8 7.6 7.8 8.1 7.8 7.7 7.4 7.3 7.2 6.9 7.2 7.0 6.8 6.6 6.5 6.4 6.7 6.9 7.2 7.5 7.7 7.6 8.1 8.1 7.6 7.1 7.6 7.6 8.3 8.4 8.5 8.6 8.5 8.4 8.1 8.3
7.4 7.3 7.2 7.1 7.4 7.6 7.6 7.5 7.5 7.1 7.6 8.0 8.1 8.0 7.8 7.8 7.7 7.7 7.6 7.2 7.4 7.1 7.4 7.1 7.2 7.0 7.2 7.6 7.8 7.7 7.8 8.3 8.2 6.8 6.4 7.6 7.4 8.3 8.5 8.9 9.0 8.5 8.2 8.3 8.0
7.4 7.1 7.4 7.2 7.5 7.5 7.5 7.6 7.2 7.3 7.8 7.8 8.0 8.0 7.8 8.0 8.2 8.1 8.1 7.8 7.1 7.2 7.4 7.3 7.6 7.5 7.5 7.4 7.5 7.7 7.8 8.0 8.4 8.4 6.9 5.8 7.5 8.2 8.3 8.4 8.5 8.5 8.3 8.4 8.0
7.3 7.0 7.3 7.4 7.4 7.6 7.5 7.5 7.5 7.7 7.7 7.6 7.8 7.9 7.7 7.9 8.1 8.4 8.4 8.2 7.8 7.5 7.6 8.1 7.7 7.5 7.5 7.7 7.9 8.0 7.8 8.1 8.4 8.3 8.4 8.1 8.4 9.0 8.6 8.6 8.4 8.1 8.2 7.9 7.8
6.9 6.9 6.9 7.4 7.5 7.7 7.8 7.7 7.6 7.9 8.0 7.8 7.6 7.7 7.7 7.6 7.8 8.0 8.5 8.5 8.4 8.2 7.9 7.9 7.8 7.9 7.8 7.8 7.9 7.7 8.0 8.2 8.5 8.5 8.7 7.9 8.3 8.8 8.8 8.4 8.4 8.2 8.1 8.1 8.1
6.7 6.8 6.8 7.2 7.4 7.5 7.7 7.8 7.8 7.5 7.5 7.6 7.4 7.2 7.5 7.5 7.6 7.7 7.9 8.3 8.5 8.4 8.3 8.0 7.8 8.0 7.4 7.9 8.0 7.8 8.1 8.2 8.5 8.5 8.6 8.9 8.9 8.5 8.8 8.3 8.0 8.1 8.1 8.3 8.2
6.9 6.9 6.8 6.7 7.0 7.2 7.2 7.3 7.3 7.4 7.3 7.4 7.4 7.0 6.9 7.2 7.5 7.5 7.7 8.1 8.3 8.4 8.4 8.3 8.2 8.3 8.4 8.6 8.1 8.1 8.1 8.1 8.2 8.5 8.6 9.0 9.1 8.5 8.7 8.7 8.2 7.8 7.8 8.0 8.1
6.8 6.7 6.4 6.3 6.5 6.4 6.6 6.9 7.0 7.0 6.7 6.8 6.6 6.9 6.9 6.7 6.8 7.2 7.4 7.7 8.1 8.4 8.5 8.4 8.4 8.7 8.7 8.4 8.3 8.3 8.4 8.4 8.4 8.6 8.7 9.0 9.2 8.6 8.4 8.7 8.6 7.9 7.6 7.9 7.8
6.5 6.5 6.4 6.1 6.2 6.4 6.7 6.7 6.7 6.8 6.8 6.5 6.5 6.7 7.0 7.2 7.0 7.3 7.3 7.7 7.7 7.8 8.3 8.3 8.3 8.6 8.8 8.8 8.5 8.5 8.5 8.5 8.7 8.7 8.9 8.9 9.3 9.0 8.2 8.5 8.7 8.3 7.6 7.4 7.3
Wind_Speed
20 20 20 21 20 20 19 19 20 20 21 23 25 24 22 21 20 3 5 5 7 18 20 11 5 5 3 1 3 6 1 1 4 1 3 9 4 3 6 12 4 2 9 13 16
19 20 20 20 21 21 21 20 19 19 21 22 24 23 23 22 3 5 8 16 28 24 11 13 10 11 3 4 3 3 2 5 7 2 2 4 7 4 3 11 10 13 15 20 18
20 21 21 22 22 22 21 21 20 19 19 21 22 23 21 16 4 5 2 18 28 18 11 11 11 8 6 4 5 5 5 4 5 6 3 7 12 6 11 1 15 19 22 21 18
22 22 23 23 23 23 23 23 21 19 18 18 19 22 24 2 4 3 6 12 24 9 6 6 11 5 4 5 7 3 4 5 6 7 4 3 2 6 7 5 8 16 22 19 19
24 24 24 25 25 24 24 24 23 20 18 16 16 17 6 2 9 4 11 13 10 4 4 6 6 5 4 5 6 3 6 5 11 12 11 9 7 6 11 14 9 18 20 19 16
24 25 26 26 26 25 25 24 23 20 18 15 12 12 1 4 4 1 7 8 6 4 4 6 6 7 4 3 4 5 12 10 9 11 8 13 7 12 5 7 11 18 18 17 17
24 25 27 27 27 27 27 27 25 22 17 13 8 2 0 13 1 6 4 5 4 5 4 4 4 3 3 4 11 14 10 6 3 10 5 10 5 10 10 5 12 14 14 15 15
27 27 28 28 28 28 28 28 27 23 15 11 6 3 7 6 5 8 5 5 7 7 5 8 5 4 4 2 5 4 5 3 5 4 4 4 4 9 12 11 15 16 13 13 10
27 28 29 30 30 30 32 30 26 12 5 12 4 4 9 5 2 8 6 7 4 5 5 8 3 4 2 6 3 5 4 3 3 5 4 2 2 7 10 9 9 14 15 12 11
26 28 29 30 31 31 33 27 7 1 4 5 3 2 5 2 3 3 6 5 5 1 1 5 2 1 3 4 3 4 3 4 5 4 3 4 3 4 10 11 13 9 13 12 12
25 26 28 30 31 30 15 3 5 4 1 6 6 6 6 7 5 4 4 7 2 3 5 2 3 5 8 5 5 3 1 6 2 5 3 4 6 10 10 5 6 7 11 14 12
24 25 27 30 29 26 2 4 2 4 9 10 11 11 12 5 5 4 3 7 7 7 5 2 4 9 4 4 4 3 3 4 1 5 3 6 7 5 10 10 8 9 10 14 9
26 25 26 31 33 3 3 3 5 2 2 8 6 6 6 9 9 7 5 4 5 7 6 7 6 8 5 3 4 3 4 3 2 3 2 4 4 6 8 7 13 13 12 13 15
24 24 24 33 3 5 5 6 8 2 5 8 4 6 4 9 5 7 6 5 2 12 8 5 5 5 5 5 7 5 7 8 6 5 4 2 3 5 7 14 14 16 10 13 14
26 23 19 11 4 2 5 13 8 4 3 3 3 1 1 8 4 6 4 5 8 6 7 8 7 8 9 6 7 10 7 6 6 5 3 1 3 6 3 8 10 13 13 12 14
26 22 17 1 1 6 14 7 4 5 5 7 4 7 3 4 3 2 5 4 4 4 3 8 2 6 9 7 7 3 2 2 4 3 2 6 5 6 6 13 16 14 17 17 14
28 21 7 3 3 7 6 4 5 3 6 8 9 10 6 2 4 3 5 4 6 5 1 0 4 4 2 4 2 5 5 2 2 0 6 6 3 13 8 6 13 17 14 16 16
31 20 4 5 6 5 4 5 3 4 5 8 6 8 6 8 3 3 6 4 1 5 3 7 8 7 3 8 7 6 9 6 6 4 4 6 6 8 8 15 13 16 15 12 16
23 2 2 3 12 2 5 4 5 3 5 7 10 6 7 7 3 5 2 4 8 9 8 5 5 4 7 4 11 4 5 9 5 1 2 5 7 9 5 9 11 15 14 17 17
3 3 3 3 11 5 5 3 4 3 8 2 4 3 7 8 8 7 3 3 4 10 7 9 1 4 4 5 3 7 6 4 2 6 5 5 5 5 5 2 3 8 15 13 13
3 4 4 8 3 5 2 5 2 8 9 7 6 4 4 5 4 5 3 4 4 6 7 5 5 6 4 4 8 3 3 3 5 4 6 2 7 7 8 8 7 8 8 6 8
2 3 2 1 4 1 2 4 7 7 10 7 4 5 3 5 4 5 4 4 10 3 3 2 6 5 9 2 4 8 9 8 5 5 2 4 7 5 3 4 11 8 9 6 8
2 2 3 4 2 3 4 5 6 10 10 8 7 5 4 5 3 3 7 7 15 9 3 2 1 1 9 6 3 5 5 5 4 3 8 5 6 8 6 6 6 15 8 7 5
3 3 4 4 1 0 3 5 6 6 4 5 3 5 3 4 3 6 7 6 16 8 10 5 4 6 10 7 5 3 4 5 6 4 5 7 5 3 8 7 4 9 8 7 5
4 1 2 3 5 4 4 3 5 8 6 9 6 4 4 4 6 3 4 8 8 12 11 4 2 2 3 4 4 4 4 1 5 4 7 8 10 4 12 14 9 9 13 13 11
2 3 4 2 1 4 5 4 3 4 3 5 4 6 1 1 5 5 6 2 5 9 9 7 3 2 1 3 6 5 9 5 8 5 3 6 2 0 7 11 16 12 12 14 12
2 1 3 5 3 3 2 1 2 2 3 3 3 2 6 6 3 8 9 9 10 5 4 4 2 1 4 3 4 5 11 5 9 11 6 5 6 13 10 13 11 14 13 14 13
Wind_Direction
357 355 352 349 347 345 343 341 339 336 335 333 332 330 332 330 319 168 261 192 155 145 131 136 101 130 130 210 184 135 119 46 280 324 44 41 89 261 67 131 181 205 126 147 141
352 350 348 346 345 343 340 338 337 335 334 333 329 327 328 332 315 250 245 138 141 145 128 158 166 165 180 216 183 169 204 194 172 86 45 28 49 356 110 150 101 92 112 134 140
351 348 346 343 341 339 337 334 334 333 332 329 325 323 325 326 321 256 342 156 160 164 146 174 159 169 214 159 189 188 203 207 125 108 70 12 30 10 122 195 149 143 143 148 148
350 348 345 342 339 336 334 331 328 327 326 324 323 323 322 290 217 34 70 148 166 158 134 192 155 214 231 206 187 205 211 122 104 127 149 76 50 36 352 336 184 142 146 150 154
348 346 342 340 337 332 330 327 322 320 318 319 320 328 346 339 253 96 102 120 139 152 186 182 188 191 282 282 149 246 121 91 133 111 100 104 91 29 7 331 166 142 149 158 162
347 343 337 336 334 329 325 320 314 310 309 309 312 322 328 229 275 50 120 141 144 186 199 187 212 197 280 313 79 97 95 106 125 141 166 158 167 147 284 303 158 158 158 163 168
339 334 332 331 329 326 321 314 310 305 301 295 284 261 38 234 60 69 119 176 188 182 210 209 213 196 6 56 147 113 90 57 69 160 174 116 133 208 164 248 169 179 164 169 174
334 332 331 329 326 322 315 310 306 300 294 270 221 181 239 252 298 264 161 258 225 222 212 278 208 227 171 166 198 87 85 127 208 177 127 236 148 167 187 185 178 179 183 184 172
332 330 330 328 326 322 316 312 307 302 181 144 133 172 261 301 206 263 193 212 165 215 215 264 290 220 71 108 21 6 185 193 291 194 121 177 220 202 203 187 171 185 188 194 180
331 329 328 327 325 323 320 310 289 323 130 186 245 360 278 273 281 257 219 189 215 257 345 171 126 138 39 83 190 157 119 217 222 150 109 158 220 146 201 210 179 176 193 201 188
330 329 327 325 324 325 333 12 15 0 128 232 210 250 284 297 306 314 187 123 172 138 171 193 125 210 220 171 186 118 122 283 107 132 136 184 176 195 195 211 232 202 194 197 194
330 329 327 324 323 325 322 54 187 259 300 250 235 247 251 65 308 305 135 142 147 185 145 47 196 227 194 173 207 130 254 277 294 147 142 180 218 239 193 217 218 223 207 197 180
327 327 327 323 322 8 308 239 334 322 278 295 219 218 223 150 207 265 140 146 138 164 179 175 223 222 162 209 231 145 191 247 240 134 34 186 270 194 226 202 214 230 217 199 177
320 322 330 327 51 326 293 301 319 188 38 282 274 272 174 151 243 214 198 147 183 189 144 209 225 218 202 192 179 266 176 237 138 121 218 203 265 257 198 198 192 202 187 193 182
318 322 329 329 295 319 302 328 325 57 343 334 308 73 308 160 177 226 157 59 159 162 131 223 187 184 213 191 158 238 158 205 174 166 121 89 65 267 156 205 200 201 200 192 181
314 317 325 166 287 253 308 315 48 44 262 332 343 332 109 297 251 61 126 75 143 142 51 211 240 184 190 203 187 52 43 37 74 100 286 195 138 261 189 212 209 196 199 186 183
316 311 295 279 233 319 311 39 40 123 323 349 327 330 277 187 276 138 116 136 153 131 166 225 243 259 168 188 82 102 90 316 354 302 227 183 152 249 252 217 216 195 200 185 178
319 312 202 211 249 332 45 53 77 259 266 298 315 324 47 351 5 287 124 193 121 98 127 169 246 174 181 176 170 168 156 163 187 213 242 172 231 248 240 272 198 213 174 182 181
324 346 293 271 204 69 71 66 204 247 306 319 329 47 344 345 18 30 116 208 207 170 174 134 250 269 210 146 145 197 154 192 134 16 76 235 295 307 290 314 185 178 184 188 189
351 353 298 144 148 61 66 217 224 257 300 312 21 39 19 336 18 20 34 266 296 199 165 208 155 241 193 119 225 157 182 86 8 176 212 275 266 238 256 146 187 176 185 195 193
34 45 300 171 73 44 118 241 313 352 6 36 17 48 357 8 303 312 321 299 332 322 155 128 119 270 83 195 177 89 155 85 127 145 184 183 273 218 235 185 168 107 86 86 172
63 57 294 26 38 22 358 333 360 341 8 29 61 50 5 345 336 330 316 247 341 321 85 255 149 207 208 229 194 169 188 164 156 230 215 167 255 274 199 167 130 124 111 121 128
72 268 312 100 77 320 331 354 58 14 10 11 17 32 352 2 349 7 330 309 13 337 28 168 328 160 328 348 2 189 193 157 125 109 196 167 262 341 107 112 142 141 124 104 112
66 25 336 36 75 242 37 11 6 350 61 32 25 44 2 7 26 310 332 310 336 345 328 85 125 192 214 209 189 160 152 169 145 140 182 202 216 247 93 95 106 92 80 76 105
31 318 196 341 346 30 66 35 358 8 15 30 21 51 35 320 325 11 346 315 318 3 351 52 230 210 246 182 178 100 32 50 170 193 171 209 185 211 149 136 115 96 89 72 43
79 45 358 338 291 29 19 357 34 324 18 345 10 327 142 261 237 293 18 324 264 324 354 353 276 264 200 245 220 112 23 49 57 350 209 122 133 291 54 114 112 94 82 81 63
320 360 106 322 17 69 298 18 37 353 307 345 298 332 300 278 270 245 216 234 251 310 325 311 332 110 237 220 134 26 354 67 82 35 310 192 171 127 107 109 94 108 113 106 100